408P/Novichonok-Gerke (2012)

Japanese version
Home page
Updated on August 14, 2022

---------------------------------------------------------------------

* Profile

Designation 408P/2011 R3
Discovery Date September 7, 2011
Magnitude 18.9 mag
Discoverer Artyom O. Novichonok and Vladimir V. Gerke (TAU station of the Ka-Dar Observatory, near Nizhniy Arkhyz, Russia)

* Pictures

* Orbital Elements

                    Epoch = 2012 Mar. 14.0 TT
     T = 2012 Apr.  3.09046 TT        Peri. = 225.18966
     e = 0.2670672                    Node  = 190.62115 2000.0
     q = 3.5577279 AU                 Incl. =  19.24408
       a =  4.8540980 AU   n = 0.09215974   P =  10.69 years

* Magnitudes Graph

        m1 = 10.0 + 5 log d + 10.0 log r

---------------------------------------------------------------------

The orbital elements are published on CBET 4833.
The magnitudes graphs are made with Comet for Windows.

---------------------------------------------------------------------

Copyright(C) Seiichi Yoshida (comet@aerith.net). All rights reserved.